Year,Month,Day,Hour,Minute,Value (Times are PST for temperature in C)
2011,04,12,00,00,3.90
2011,04,12,00,01,3.90
2011,04,12,00,02,3.90
2011,04,12,00,03,3.80
2011,04,12,00,04,3.80
2011,04,12,00,05,3.70
2011,04,12,00,06,3.70
2011,04,12,00,07,3.60
2011,04,12,00,08,3.60
2011,04,12,00,09,3.50
2011,04,12,00,10,3.50
2011,04,12,00,11,3.40
2011,04,12,00,12,3.40
2011,04,12,00,13,3.30
2011,04,12,00,14,3.30
2011,04,12,00,15,3.30
2011,04,12,00,16,3.20
2011,04,12,00,17,3.20
2011,04,12,00,18,3.20
2011,04,12,00,19,3.20
2011,04,12,00,20,3.20
2011,04,12,00,21,3.30
2011,04,12,00,22,3.30
2011,04,12,00,23,3.40
2011,04,12,00,24,3.40
2011,04,12,00,25,3.40
2011,04,12,00,26,3.40
2011,04,12,00,27,3.50
2011,04,12,00,28,3.50
2011,04,12,00,29,3.60
2011,04,12,00,30,3.70
2011,04,12,00,31,3.80
2011,04,12,00,32,3.90
2011,04,12,00,33,3.90
2011,04,12,00,34,3.90
2011,04,12,00,35,3.90
2011,04,12,00,36,3.90
2011,04,12,00,37,3.90
2011,04,12,00,38,3.80
2011,04,12,00,39,3.70
2011,04,12,00,40,3.70
2011,04,12,00,41,3.60
2011,04,12,00,42,3.60
2011,04,12,00,43,3.60
2011,04,12,00,44,3.60
2011,04,12,00,45,3.50
2011,04,12,00,46,3.50
2011,04,12,00,47,3.60
2011,04,12,00,48,3.50
2011,04,12,00,49,3.50
2011,04,12,00,50,3.50
2011,04,12,00,51,3.50
2011,04,12,00,52,3.50
2011,04,12,00,53,3.50
2011,04,12,00,54,3.50
2011,04,12,00,55,3.50
2011,04,12,00,56,3.60
2011,04,12,00,57,3.60
2011,04,12,00,58,3.60
2011,04,12,00,59,3.70
2011,04,12,01,00,3.70
2011,04,12,01,01,3.70
2011,04,12,01,02,3.70
2011,04,12,01,03,3.80
2011,04,12,01,04,3.80
2011,04,12,01,05,3.90
2011,04,12,01,06,3.90
2011,04,12,01,07,4.00
2011,04,12,01,08,4.10
2011,04,12,01,09,4.10
2011,04,12,01,10,4.10
2011,04,12,01,11,4.10
2011,04,12,01,12,4.20
2011,04,12,01,13,4.20
2011,04,12,01,14,4.20
2011,04,12,01,15,4.20
2011,04,12,01,16,4.20
2011,04,12,01,17,4.20
2011,04,12,01,18,4.20
2011,04,12,01,19,4.20
2011,04,12,01,20,4.20
2011,04,12,01,21,4.20
2011,04,12,01,22,4.20
2011,04,12,01,23,4.20
2011,04,12,01,24,4.20
2011,04,12,01,25,4.10
2011,04,12,01,26,4.10
2011,04,12,01,27,4.10
2011,04,12,01,28,4.10
2011,04,12,01,29,4.10
2011,04,12,01,30,4.10
2011,04,12,01,31,4.00
2011,04,12,01,32,4.00
2011,04,12,01,33,4.00
2011,04,12,01,34,3.90
2011,04,12,01,35,3.90
2011,04,12,01,36,3.90
2011,04,12,01,37,3.80
2011,04,12,01,38,3.80
2011,04,12,01,39,3.80
2011,04,12,01,40,3.80
2011,04,12,01,41,3.80
2011,04,12,01,42,3.70
2011,04,12,01,43,3.70
2011,04,12,01,44,3.70
2011,04,12,01,45,3.70
2011,04,12,01,46,3.70
2011,04,12,01,47,3.70
2011,04,12,01,48,3.60
2011,04,12,01,49,3.60
2011,04,12,01,50,3.60
2011,04,12,01,51,3.60
2011,04,12,01,52,3.50
2011,04,12,01,53,3.50
2011,04,12,01,54,3.50
2011,04,12,01,55,3.50
2011,04,12,01,56,3.40
2011,04,12,01,57,3.40
2011,04,12,01,58,3.40
2011,04,12,01,59,3.40
2011,04,12,02,00,3.30
2011,04,12,02,01,3.30
2011,04,12,02,02,3.30
2011,04,12,02,03,3.30
2011,04,12,02,04,3.30
2011,04,12,02,05,3.20
2011,04,12,02,06,3.20
2011,04,12,02,07,3.20
2011,04,12,02,08,3.20
2011,04,12,02,09,3.20
2011,04,12,02,10,3.20
2011,04,12,02,11,3.20
2011,04,12,02,12,3.20
2011,04,12,02,13,3.20
2011,04,12,02,14,3.20
2011,04,12,02,15,3.20
2011,04,12,02,16,3.20
2011,04,12,02,17,3.20
2011,04,12,02,18,3.20
2011,04,12,02,19,3.20
2011,04,12,02,20,3.20
2011,04,12,02,21,3.20
2011,04,12,02,22,3.20
2011,04,12,02,23,3.20
2011,04,12,02,24,3.30
2011,04,12,02,25,3.30
2011,04,12,02,26,3.30
2011,04,12,02,27,3.30
2011,04,12,02,28,3.40
2011,04,12,02,29,3.40
2011,04,12,02,30,3.40
2011,04,12,02,31,3.40
2011,04,12,02,32,3.40
2011,04,12,02,33,3.40
2011,04,12,02,34,3.40
2011,04,12,02,35,3.40
2011,04,12,02,36,3.40
2011,04,12,02,37,3.40
2011,04,12,02,38,3.40
2011,04,12,02,39,3.40
2011,04,12,02,40,3.30
2011,04,12,02,41,3.30
2011,04,12,02,42,3.30
2011,04,12,02,43,3.30
2011,04,12,02,44,3.20
2011,04,12,02,45,3.20
2011,04,12,02,46,3.20
2011,04,12,02,47,3.10
2011,04,12,02,48,3.10
2011,04,12,02,49,3.00
2011,04,12,02,50,3.00
2011,04,12,02,51,2.90
2011,04,12,02,52,2.90
2011,04,12,02,53,2.90
2011,04,12,02,54,2.80
2011,04,12,02,55,2.80
2011,04,12,02,56,2.80
2011,04,12,02,57,2.70
2011,04,12,02,58,2.70
2011,04,12,02,59,2.60
2011,04,12,03,00,2.60
2011,04,12,03,01,2.50
2011,04,12,03,02,2.50
2011,04,12,03,03,2.50
